Preview of NWS' New Version of Forecast
This preview is not operational and should not be used for support decisions.

Regional Weather Roundup (RWR)

Issued by National Weather Service (NWS)

                            
000
ASUS43 KDTX 152210
RWRMI 
MICHIGAN HOURLY REGIONAL WEATHER ROUNDUP
NATIONAL WEATHER SERVICE DETROIT/PONTIAC MI
600 PM EDT MON OCT 15 2018

NOTE: "FAIR" INDICATES FEW OR NO CLOUDS BELOW 12,000 FEET WITH NO
SIGNIFICANT WEATHER AND/OR OBSTRUCTION TO VISIBILITY.

MIZ047>049-052>055-059>063-066>070-074>076-081>083-152300-
SOUTHEAST LOWER MICHIGAN
  
CITY           SKY/WX    TMP DP  RH WIND       PRES   REMARKS
ADRIAN         FAIR      45  28  51 NW17G24   30.12R                  
ALMA           FAIR      42  25  50 W16G26    30.11R                  
ANN ARBOR      FAIR      45  29  53 W20G25    30.09R                  
BAD AXE        MOCLDY    42  21  42 W17G35    30.02R                  
CARO           FAIR      43  22  42 W15G26    30.05R                  
DETROIT CITY   FAIR      48  27  44 W18G26    30.07R                  
DETROIT        FAIR      48  27  44 W18G31    30.07R                  
FLINT          FAIR      43  23  45 NW18G28   30.09R                  
GROSSE ILE     FAIR      49  30  48 NW17G26   30.07R                  
HILLSDALE      FAIR      43  28  56 W13G26    30.11R                  
HOWELL         FAIR      43  26  51 W20G25    30.09R                  

CITY           SKY/WX    TMP DP  RH WIND       PRES   REMARKS
JACKSON        MOCLDY    44  28  53 W10G24    30.11R                  
LAMBERTVILLE   FAIR      51  31  48 W9G17     30.10R                  
LANSING        FAIR      43  27  53 W16G28    30.12R                  
LAPEER         FAIR      44  25  46 W16G24    30.06R                  
MASON          FAIR      45  24  45 W20       30.11R                  
MONROE         FAIR      48  30  49 W16G23    30.08R                  
MT. CLEMENS    PTCLDY    47  27  46 W22G29    30.04R                  
PONTIAC        FAIR      45  27  49 W24       30.05R                  
PORT HOPE        N/A     44  25  47 W14G26    29.98R                  
PORT HURON     FAIR      46  27  46 W7G25     30.04R                  
TRI CITIES     FAIR      43  24  47 W18G26    30.08R                  
MIDLAND        MOCLDY    43  23  45 W10G21    30.07R                  
TROY           FAIR      49  27  41 W20G29    30.08R                  
SAGINAW HB     FAIR      43  23  45 W22G31    30.07R                  
$$
MIZ043>046-050>051-056>058-064>065-071>073-077>080-152300-
SOUTHWEST LOWER MICHIGAN
  
CITY           SKY/WX    TMP DP  RH WIND       PRES   REMARKS
BATTLE CREEK   FAIR      42  27  55 W15G26    30.15R                  
BENTON HARBOR  PTSUNNY   45  28  51 W10G22    30.18S                  
BIG RAPIDS     MOCLDY    39  24  55 W15G25    30.10R WCI  31          
COLDWATER      FAIR      45  22  41 W15G25    30.15R                  
FREMONT        CLOUDY    42  27  55 NW9       30.13R                  
HOLLAND        PTSUNNY   45  27  49 W10G22    30.16R                  
GRAND RAPIDS   FAIR      43  25  49 W21G26    30.13R                  
IONIA          FAIR      43  23  44 W17G24    30.11R                  
KALAMAZOO      FAIR      43  27  53 W17G24    30.17R                  
LUDINGTON      CLOUDY    40  25  55 NW9G21    30.13R WCI  34          
MARSHALL       MOCLDY    46  24  43 W15G23    30.13R                  
MOUNT PLEASANT MOCLDY    41  21  44 W20G26    30.08R                  
MUSKEGON       PTSUNNY   44  26  49 W12G22    30.15R                  
SOUTH HAVEN    PTSUNNY   45  28  51 W9G16     30.17S                  
$$
MIZ016>042-152300-
NORTHERN LOWER MICHIGAN
  
CITY           SKY/WX    TMP DP  RH WIND       PRES   REMARKS
ALPENA         FAIR      38  31  76 W16G28    29.97R WCI  29          
BEAVER ISLAND  CLOUDY    39  28  63 W20G29    30.00R WCI  29          
BELLAIRE       CLOUDY    40  25  56 W9G18     30.05R WCI  34          
CADILLAC       CLOUDY    37  25  63 W16G23    30.05R WCI  27          
CHARLEVOIX     CLOUDY    40  29  63 W20G32    30.04R WCI  31          
FRANKFORT      CLOUDY    39  24  55 W15G26    30.10R WCI  31          
GAYLORD        CLOUDY    35  28  75 W15G23    29.99R WCI  25          
GRAYLING         N/A    N/A N/A N/A MISG        N/A                   
HARBOR SPRINGS CLOUDY    40  26  57 W17G28    29.99R WCI  31          
HOUGHTON LAKE  CLOUDY    39  24  55 W18G39    30.04R WCI  30          
OSCODA         FAIR      41  24  50 W15G23    29.99R                  
PELLSTON       CLOUDY    39  27  62 W16G25    29.98R WCI  30          
ROGERS CITY    FAIR      37  31  81 W13G20    29.96R WCI  28          
TRAVERSE CITY  FLURRIES  41  26  55 W14       30.06R                  
$$
MIZ007>008-015-152300-
EASTERN UPPER MICHIGAN
  
CITY           SKY/WX    TMP DP  RH WIND       PRES   REMARKS
KINROSS        CLOUDY    38  30  73 W21G28    29.90R WCI  28          
MACKINAC ISLAN CLOUDY    39  24  54 W21G35    29.94R WCI  29          
NEWBERRY       CLOUDY    36  35  96 W16G24    29.94R WCI  26          
S. S. MARIE    LGT RAIN  37  35  92 W16G28    29.87R WCI  28          
MUNISING         N/A     39  29  67 W9        29.97R WCI  33          
$$
MIZ004>006-011>014-085-152300-
CENTRAL UPPER MICHIGAN
  
CITY           SKY/WX    TMP DP  RH WIND       PRES   REMARKS
MANISTIQUE     MOCLDY    36  24  60 MISG      29.99R                  
ESCANABA       CLOUDY    38  27  64 W13       30.05R WCI  30          
MENOMINEE      FAIR      39  23  52 W8        30.10R WCI  33          
SAWYER-GWINN   CLOUDY    36  28  75 W12G17    29.98R WCI  27          
$$
MIZ001>003-009>011-084-152300-
WESTERN UPPER MICHIGAN
  
CITY           SKY/WX    TMP DP  RH WIND       PRES   REMARKS
IRON MOUNTAIN  CLOUDY    37  27  67 W12G20    30.03R WCI  29          
HOUGHTON       CLOUDY    37  26  64 W16G26    29.95R WCI  28          
COPPER HARBOR    N/A     39  28  64 VRB7      29.93R WCI  34          
IRONWOOD       FAIR      39  22  50 SW13      30.01S WCI  31          
$$

ABBREVIATIONS USED IN REMARKS
   TC - TEMPERATURE IN CELSIUS
  WCI - WIND CHILL INDEX
   HX - HEAT INDEX
  VSB - VISIBILITY